Regional Weather Roundup
Issued by NWS

Home | Current Version | Previous Version | Graphics & Text | Print | Product List | Glossary On
Versions: 1 2 3 4 5 6 7 8 9 10 11 12 13 14 15 16 17 18 19 20 21 22 23 24 25 26 27 28 29 30 31 32 33 34 35 36 37 38 39 40 41 42 43 44 45 46 47 48 49 50
000
ASUS43 KLSX 200459
RWRMO

WEATHER SUMMARY FOR MISSOURI
NATIONAL WEATHER SERVICE SPRINGFIELD MO
1200 AM CDT SUN APR 20 2014

NOTE: "FAIR" INDICATES FEW OR NO CLOUDS BELOW 12,000 FEET WITH NO
       SIGNIFICANT WEATHER AND/OR OBSTRUCTIONS TO VISIBILITY.
       CURRENT SKY AND/OR WEATHER CONDITIONS ARE NOT AVAILABLE FOR
       CHILLICOTHE AND FARMINGTON.

MOZ001>031-035>038-043-044-053-054-200600-
...NORTHERN AND WESTERN MISSOURI...

CITY           SKY/WX    TMP DP  RH WIND       PRES   REMARKS
KANSAS CTY INT PTCLDY    57  44  62 S8        30.09S
KANSAS C DTWN  PTCLDY    67  45  45 S6        30.08S
LEE`S SUMMIT   MOCLDY    62  44  51 SE7       30.11S
ST JOSEPH      CLEAR     57  44  62 S3        30.08R
KIRKSVILLE     PTCLDY    54  41  61 SE7       30.14S

$$
MOZ066>068-077>081-088>096-101>105-200600-
...SOUTHWEST MISSOURI...

CITY           SKY/WX    TMP DP  RH WIND       PRES   REMARKS
SPRINGFIELD    MOCLDY    63  43  48 SE12      30.14R
JOPLIN         MOCLDY    61  45  55 S7        30.12S

$$
MOZ032>034-039>042-045>050-055>058-069>072-200600-
...CENTRAL MISSOURI...

CITY           SKY/WX    TMP DP  RH WIND       PRES   REMARKS
COLUMBIA       MOCLDY    62  40  44 SE8       30.14S
JEFFERSON CITY MOCLDY    59  42  53 SE8       30.13S
ROLLA          MOCLDY    60  39  45 SE8       30.15S
SEDALIA        MOCLDY    64  41  42 S7        30.13S
OSAGE BEACH    PTCLDY    61  37  41 SE6       30.14F

$$
MOZ051-052-059>065-200600-
...EAST CENTRAL MISSOURI...

CITY           SKY/WX    TMP DP  RH WIND       PRES   REMARKS
ST LOUIS INTL  MOCLDY    60  42  51 E7        30.18F
SPIRIT OF STL  CLEAR     61  41  47 CALM      30.17S
ST CHARLES     CLEAR     54  44  69 E8        30.17S

$$
MOZ072>076-082>087-097>100-106>115-200600-
...SOUTH CENTRAL AND SOUTHEAST MISSOURI...

CITY           SKY/WX    TMP DP  RH WIND       PRES   REMARKS
CAPE GIRARDEAU CLEAR     53  46  77 CALM      30.18R
FARMINGTON     CLEAR     54  41  62 CALM      30.21S
POPLAR BLUFF   CLEAR     54  48  80 CALM      30.16F
WEST PLAINS    CLEAR     57  39  51 CALM      30.18S

$$



USA.gov is the U.S. government's official web portal to all federal, state and local government web resources and services.